Temperature
8 8 8 8 9 9 9 9 9 9 9 9 9 9 9 10 10 10 10 10 10 10 10 10 10 10 10 10 10 11 11 10 10 10 10 10 10 10 10 10 10 10 10
8 8 8 8 8 8 8 8 8 8 8 8 8 8 9 9 9 9 9 9 10 10 10 10 10 10 10 10 10 10 10 10 10 10 10 10 10 10 10 10 10 10 10
7 7 7 7 8 8 8 7 7 7 8 8 8 8 8 8 8 8 8 9 9 9 9 9 9 9 9 9 9 9 10 10 10 10 10 10 10 10 9 9 10 10 10
7 7 7 7 7 7 7 7 7 7 7 7 7 7 7 8 8 8 8 8 8 9 9 9 9 9 9 9 9 9 9 9 9 9 9 9 9 9 9 9 9 9 9
6 6 6 6 6 7 7 6 6 6 6 6 6 7 7 7 7 7 7 8 8 8 8 8 8 9 8 8 8 8 8 9 9 9 9 9 9 9 9 9 9 9 9
6 6 6 6 6 6 6 6 6 6 6 6 6 6 6 6 7 7 7 7 7 8 8 8 8 8 8 8 8 8 8 8 8 8 8 8 8 8 9 8 9 9 8
5 5 5 5 5 5 5 5 5 5 5 5 5 5 5 6 6 6 6 7 7 7 7 7 7 7 7 7 8 8 8 7 7 8 8 8 8 8 8 8 8 8 8
5 5 4 5 5 5 5 5 5 5 5 5 5 4 4 5 5 6 6 6 6 6 7 7 7 7 7 7 7 7 7 7 7 7 7 7 7 7 7 7 7 7 7
4 4 4 4 4 4 4 4 4 4 4 4 4 4 4 4 4 5 5 5 6 6 6 6 6 6 6 6 6 6 6 6 6 6 6 6 6 6 7 7 7 7 7
3 3 3 3 3 3 3 3 4 4 4 4 4 4 4 4 4 3 4 4 5 5 5 5 6 6 6 6 6 6 6 6 6 6 5 5 6 6 6 6 6 6 6
2 2 3 3 3 3 3 3 3 3 3 3 3 3 3 3 3 3 3 4 4 4 5 5 5 5 5 5 5 5 5 5 5 5 5 5 5 5 5 6 5 6 6
2 2 2 2 2 2 2 2 2 3 3 3 3 3 3 3 3 3 3 3 3 3 4 4 4 4 4 4 4 4 4 4 4 4 4 4 4 5 5 5 5 5 5
1 1 1 1 1 1 1 2 2 2 2 2 2 2 2 2 2 2 2 2 2 2 3 3 3 3 3 4 4 4 4 4 4 4 4 4 4 4 4 4 4 4 4
0 0 0 1 1 1 1 1 1 1 1 1 1 1 1 1 1 1 1 1 1 1 2 2 3 3 3 3 3 3 3 3 3 3 3 4 4 4 4 4 4 4 4
-0 -0 -0 -0 -0 -0 -0 0 0 0 1 1 1 1 1 1 1 1 1 1 1 0 1 1 2 2 2 2 2 2 3 3 3 3 3 3 3 3 3 3 3 3 3
-1 -1 -1 -1 -1 -1 -1 -1 -1 -0 -0 -0 -0 0 0 0 0 0 0 0 0 0 -0 1 1 1 2 2 2 2 2 2 2 2 2 2 3 3 3 3 3 3 3
-2 -1 -1 -1 -1 -1 -1 -1 -1 -1 -1 -1 -1 -1 -0 -0 -0 -0 -0 -0 -0 -0 -1 -0 0 1 1 1 1 1 1 1 2 2 2 2 2 2 2 2 2 2 2
-2 -2 -2 -2 -2 -2 -2 -2 -2 -2 -1 -1 -1 -1 -1 -1 -1 -1 -1 -1 -1 -1 -1 -1 -1 -0 0 0 0 1 1 1 1 1 1 1 1 1 1 2 2 2 2
-3 -3 -3 -3 -3 -3 -3 -3 -2 -2 -2 -2 -2 -2 -2 -2 -2 -2 -1 -1 -1 -2 -2 -2 -2 -1 -1 -1 -0 -0 0 0 0 1 1 1 1 1 1 1 1 1 1
-4 -4 -4 -4 -3 -3 -3 -3 -3 -3 -3 -2 -2 -2 -2 -2 -2 -2 -2 -2 -2 -2 -2 -3 -2 -2 -2 -1 -1 -1 -1 -0 -0 0 0 0 0 0 0 0 0 0 0
-4 -4 -4 -4 -4 -4 -4 -4 -4 -4 -3 -3 -3 -3 -3 -3 -3 -3 -3 -3 -3 -3 -3 -3 -3 -3 -3 -2 -2 -2 -2 -1 -1 -1 -0 -0 -0 -0 -0 -0 -0 -0 -0
-5 -5 -5 -5 -5 -4 -4 -5 -5 -5 -4 -4 -4 -4 -4 -3 -3 -3 -3 -3 -3 -3 -4 -4 -4 -4 -3 -3 -3 -3 -3 -2 -2 -1 -1 -1 -1 -1 -1 -1 -1 -1 -1
-6 -6 -6 -5 -5 -5 -5 -5 -5 -5 -5 -5 -5 -5 -4 -4 -4 -4 -4 -4 -4 -4 -4 -4 -4 -4 -4 -4 -4 -3 -3 -3 -3 -2 -3 -2 -2 -2 -2 -2 -2 -2 -2
-6 -6 -6 -6 -6 -6 -6 -6 -6 -6 -6 -6 -6 -6 -5 -5 -5 -5 -5 -5 -5 -5 -5 -5 -5 -4 -5 -5 -5 -4 -4 -4 -4 -4 -4 -4 -3 -3 -3 -3 -3 -3 -3
-7 -7 -7 -7 -7 -7 -7 -7 -7 -7 -7 -7 -7 -6 -6 -6 -6 -6 -6 -6 -5 -5 -5 -5 -5 -5 -5 -5 -5 -5 -5 -5 -5 -4 -4 -4 -4 -4 -4 -3 -3 -3 -3
-7 -7 -7 -7 -7 -7 -7 -8 -8 -8 -8 -7 -7 -7 -7 -7 -7 -7 -6 -6 -6 -6 -6 -6 -6 -6 -6 -6 -6 -6 -6 -6 -6 -6 -5 -5 -5 -5 -5 -4 -4 -4 -4
Wind_Speed
4 4 4 4 4 4 3 3 4 4 5 6 5 5 6 6 6 7 7 7 6 6 6 7 7 7 7 7 7 7 7 7 7 7 7 8 8 8 7 7 7 7 7
4 3 3 4 4 3 3 3 4 4 4 5 5 6 6 5 6 7 6 6 6 6 6 6 6 6 6 6 6 6 6 6 6 6 6 6 6 6 7 6 6 7 7
5 4 3 3 4 3 3 3 3 4 4 4 4 5 5 5 5 5 6 6 6 6 6 6 6 5 6 5 5 5 5 5 4 4 4 4 4 4 4 5 5 5 5
4 4 3 3 4 3 3 2 2 2 2 2 2 3 4 4 4 4 5 5 5 5 5 5 6 6 5 4 4 5 4 4 4 4 3 3 3 3 3 3 3 4 4
4 3 3 3 3 3 2 2 2 1 2 2 2 2 2 2 3 4 4 4 4 5 5 5 6 7 7 5 4 4 5 5 5 5 4 4 3 2 2 2 2 3 3
4 3 2 2 2 2 2 1 1 2 1 1 2 2 2 1 2 2 2 3 3 3 5 5 4 4 5 5 5 4 5 5 4 4 4 4 3 2 2 2 2 2 2
3 3 2 2 2 1 1 1 1 1 1 1 1 1 2 1 1 1 2 2 2 2 3 4 4 3 3 3 4 3 3 3 4 4 3 3 2 2 2 2 2 1 1
2 1 2 1 1 1 0 0 1 0 0 0 1 1 0 1 1 1 0 1 0 1 2 3 3 3 3 2 2 2 1 1 2 2 2 1 2 1 1 0 1 1 1
1 1 1 1 1 0 0 1 1 1 1 1 0 1 1 2 1 1 1 1 0 0 1 2 2 2 3 3 2 1 1 0 1 0 0 0 1 1 2 2 1 1 1
1 1 1 1 1 1 0 1 0 0 1 2 1 1 1 1 1 1 1 1 1 1 1 0 1 2 3 3 2 2 2 2 2 2 2 2 2 3 3 3 3 3 3
1 1 1 1 1 0 0 0 0 0 1 2 2 1 2 1 1 2 2 2 1 1 1 1 2 2 4 4 2 2 2 2 3 3 4 4 4 4 4 4 4 4 4
2 1 1 1 1 1 1 1 1 1 1 1 1 1 1 2 2 2 2 2 2 2 2 2 2 3 4 4 3 3 4 4 4 5 5 5 5 5 5 5 5 5 5
1 2 2 2 1 2 2 2 1 2 2 2 2 2 2 2 1 1 2 2 2 2 1 2 3 3 4 3 3 4 5 5 5 6 6 6 6 6 7 7 7 6 6
1 2 2 2 2 2 2 2 2 2 2 2 2 2 2 2 2 1 1 1 1 2 2 3 1 3 2 2 4 5 5 6 6 7 7 7 7 7 8 8 8 7 7
1 1 2 2 2 2 2 2 2 2 3 3 3 3 3 3 2 2 1 2 3 3 3 3 1 2 3 3 5 5 5 7 8 8 8 8 8 8 8 8 8 8 7
2 1 2 2 2 2 2 2 2 3 3 3 3 3 3 3 2 2 2 2 2 3 4 3 2 2 3 4 6 6 7 8 9 9 9 9 9 8 8 8 8 8 8
2 2 2 2 2 2 2 2 2 3 3 3 3 4 4 3 3 3 3 3 3 3 4 4 2 2 3 3 5 6 7 8 8 9 10 10 10 9 10 10 9 9 9
2 2 2 2 2 2 2 3 3 3 3 4 3 4 4 3 3 3 3 3 4 3 4 5 4 3 3 4 4 4 6 7 8 9 10 10 11 11 11 11 10 10 10
2 3 3 2 2 3 3 3 3 4 4 4 4 4 5 4 4 4 4 4 3 4 3 4 4 3 3 3 3 4 5 5 7 8 10 11 12 12 12 12 11 10 10
2 3 3 3 3 3 3 3 3 4 4 4 4 4 4 5 5 5 5 4 4 4 3 4 4 3 3 3 2 3 4 4 5 6 8 9 11 12 12 12 12 11 11
3 3 3 3 3 3 3 3 3 3 3 4 4 4 5 6 7 6 5 4 4 4 4 4 5 4 4 3 3 3 4 4 5 5 4 6 7 8 10 12 12 13 13
3 3 3 3 4 4 5 5 5 4 4 4 5 5 5 6 7 8 10 9 7 6 6 5 5 6 6 5 4 4 3 4 5 3 3 5 6 6 8 10 12 13 13
3 3 3 3 4 5 6 7 6 5 4 5 5 5 5 5 6 5 7 9 9 10 9 7 7 7 6 5 5 5 5 5 6 4 3 6 4 6 8 11 13 14 14
3 3 4 4 4 5 7 7 7 5 4 5 5 5 6 6 6 6 5 5 5 6 7 7 6 7 7 6 6 6 6 6 5 4 4 5 4 5 6 9 12 14 14
4 4 4 4 4 5 8 8 7 4 4 5 5 5 5 6 8 8 6 6 6 6 8 10 11 11 12 12 9 4 4 4 6 5 3 4 3 3 4 5 10 13 14
4 4 5 4 4 5 7 8 7 3 4 4 4 4 6 7 8 8 6 5 7 6 5 6 7 8 8 9 10 6 5 5 5 5 3 3 3 2 3 3 5 8 10
Wind_Direction
71 71 67 62 58 53 35 22 27 41 42 39 38 43 49 48 67 77 70 70 77 90 103 111 114 114 117 115 111 108 107 104 103 99 94 89 86 87 88 84 80 76 75
65 68 70 59 52 48 33 29 34 42 44 43 33 35 43 48 56 72 79 72 72 80 88 97 104 115 112 118 122 118 116 115 112 107 100 96 90 85 82 83 81 76 72
60 57 62 55 44 43 33 33 44 53 51 50 35 30 33 42 49 60 71 78 75 76 81 86 89 99 109 107 115 121 131 129 122 121 114 106 102 95 85 83 79 78 75
66 55 54 52 42 38 39 30 37 52 48 48 36 27 31 37 43 60 70 70 74 80 79 81 82 78 88 95 121 120 119 128 127 121 119 116 117 108 102 106 94 83 76
62 57 58 53 47 49 48 33 29 55 59 50 43 29 23 27 27 53 66 75 73 82 91 92 88 76 68 66 87 114 114 112 109 107 102 98 101 105 106 96 99 87 79
50 44 57 58 49 52 39 41 59 47 67 73 52 28 1 13 40 49 49 78 83 86 96 98 97 90 71 62 65 77 95 101 99 97 94 88 85 91 102 113 107 100 87
48 43 34 49 30 56 46 23 76 89 50 63 62 11 336 348 57 50 32 50 63 87 104 105 104 98 92 77 65 66 76 85 88 83 76 76 73 70 68 79 95 106 92
51 44 35 43 19 27 108 101 94 75 292 39 106 126 243 303 304 291 78 72 41 90 111 126 125 121 113 107 83 64 68 96 96 91 85 61 43 28 341 320 40 55 52
43 34 31 30 20 54 176 186 159 172 205 273 334 151 177 218 272 268 249 196 150 58 138 159 150 142 150 131 131 156 190 214 182 132 147 298 312 320 323 316 308 309 315
57 18 16 24 23 21 350 244 51 203 179 213 256 282 263 210 165 261 277 245 207 188 180 153 173 177 174 168 165 194 209 225 240 248 256 270 287 292 291 289 287 285 289
64 54 22 7 10 355 319 294 259 212 209 213 222 252 274 287 252 194 242 262 276 226 203 224 202 196 185 179 187 210 218 236 251 256 257 259 269 277 280 284 285 286 288
347 6 348 336 318 317 268 238 229 211 229 242 240 238 223 219 220 210 233 247 259 254 228 222 211 200 194 190 204 221 231 244 250 256 257 255 259 267 271 274 277 280 282
317 316 321 310 311 300 292 282 253 221 221 229 234 242 250 254 266 250 230 241 264 278 243 236 217 205 200 192 215 230 233 241 247 251 254 254 255 261 266 266 268 274 278
238 289 297 295 290 289 288 290 275 245 234 223 236 235 242 250 268 257 241 212 252 278 254 242 238 195 197 222 254 250 238 239 244 250 255 255 255 257 260 264 265 267 274
277 282 292 300 294 278 274 270 270 265 251 237 231 234 238 249 253 247 244 199 198 233 252 243 232 215 227 242 256 263 255 246 246 251 255 257 255 254 257 261 266 267 271
313 267 261 270 289 289 279 268 271 269 256 250 237 228 239 245 244 244 238 226 209 216 245 252 251 258 256 263 263 262 264 253 248 249 253 254 251 250 252 255 259 263 266
304 283 261 251 252 265 270 264 262 258 251 254 244 231 239 239 235 237 234 226 228 218 244 272 278 278 260 262 271 266 263 257 244 245 250 250 248 250 251 251 254 257 258
313 297 276 264 259 255 249 243 251 256 249 249 247 238 241 245 242 239 234 234 233 228 232 257 270 269 263 254 256 264 269 261 248 244 248 250 249 249 251 251 250 252 253
314 312 298 267 264 262 256 251 246 248 246 247 246 243 243 241 247 246 237 235 239 246 238 249 267 269 272 267 270 271 272 265 255 248 248 249 250 251 252 252 250 251 252
312 304 300 288 277 274 269 271 270 259 254 255 256 252 247 241 243 245 243 238 238 240 243 247 259 266 268 270 262 274 279 268 259 253 253 255 254 254 253 249 249 251 254
314 311 308 307 296 279 274 276 273 269 264 263 264 262 257 254 255 253 250 241 237 238 237 242 251 258 256 262 255 259 268 277 269 243 236 249 252 250 250 249 248 250 254
308 312 309 303 300 290 288 287 286 274 272 269 270 270 266 259 258 260 259 258 252 241 235 235 245 251 254 253 253 254 259 277 275 239 230 255 246 246 246 244 247 251 253
303 300 301 302 296 298 295 287 283 282 272 265 264 266 267 267 263 260 264 267 264 260 251 241 243 250 256 253 252 258 259 260 264 256 266 265 245 245 245 245 247 251 254
298 290 294 297 298 302 306 300 295 289 277 271 267 264 263 262 258 258 261 263 261 261 263 261 253 257 262 259 251 253 256 269 278 260 237 260 254 250 251 247 247 248 251
292 290 288 289 292 299 302 302 296 288 278 276 274 271 270 265 267 263 256 259 267 270 271 269 271 272 270 269 262 264 264 267 274 270 242 242 257 271 260 247 244 247 249
286 284 287 288 285 291 296 296 293 281 279 279 277 278 278 278 279 271 251 247 258 266 271 281 280 280 279 274 266 250 241 252 267 269 238 230 256 270 278 258 238 240 245
Height
1536 1537 1538 1539 1539 1541 1541 1542 1543 1544 1545 1546 1547 1548 1549 1549 1550 1551 1552 1553 1554 1555 1556 1557 1557 1558 1558 1559 1560 1560 1561 1562 1563 1564 1564 1564 1565 1565 1566 1566 1566 1567 1567
1535 1536 1537 1537 1538 1539 1540 1541 1542 1542 1543 1544 1545 1546 1547 1547 1548 1549 1550 1551 1552 1553 1554 1555 1556 1556 1557 1558 1558 1559 1560 1561 1562 1563 1563 1563 1564 1564 1565 1565 1566 1566 1566
1533 1534 1535 1536 1537 1537 1538 1539 1540 1541 1542 1542 1543 1544 1545 1545 1546 1547 1548 1549 1550 1551 1552 1553 1554 1555 1555 1556 1557 1558 1559 1560 1560 1561 1562 1562 1563 1563 1564 1564 1565 1565 1566
1531 1532 1533 1534 1535 1536 1537 1537 1538 1539 1540 1540 1541 1541 1543 1544 1544 1545 1546 1547 1548 1549 1550 1551 1552 1553 1553 1554 1555 1556 1557 1558 1558 1559 1560 1561 1562 1562 1563 1563 1564 1564 1565
1529 1530 1531 1531 1532 1533 1534 1535 1536 1537 1537 1538 1538 1539 1540 1541 1542 1543 1544 1544 1545 1546 1547 1548 1550 1550 1551 1552 1552 1553 1554 1555 1556 1557 1558 1559 1560 1560 1561 1562 1562 1563 1563
1527 1527 1528 1529 1530 1531 1532 1533 1534 1535 1535 1536 1536 1537 1538 1539 1539 1541 1541 1542 1543 1544 1545 1546 1547 1548 1548 1550 1550 1551 1552 1553 1554 1555 1555 1556 1557 1558 1559 1560 1560 1561 1561
1524 1525 1525 1526 1527 1528 1529 1530 1531 1532 1533 1533 1534 1534 1535 1536 1536 1538 1538 1539 1540 1541 1542 1543 1544 1545 1546 1547 1548 1548 1549 1550 1551 1552 1553 1554 1555 1556 1557 1557 1558 1558 1559
1521 1522 1523 1523 1524 1525 1526 1527 1528 1529 1530 1531 1531 1532 1533 1534 1533 1534 1535 1536 1537 1538 1539 1540 1541 1542 1543 1544 1545 1546 1547 1547 1548 1549 1550 1551 1552 1553 1554 1555 1555 1555 1556
1518 1519 1520 1520 1521 1522 1523 1524 1525 1525 1526 1527 1529 1531 1531 1530 1530 1531 1531 1532 1533 1534 1535 1537 1537 1538 1540 1541 1542 1543 1544 1544 1545 1546 1547 1548 1549 1550 1551 1551 1552 1552 1553
1514 1515 1516 1517 1518 1518 1519 1520 1521 1522 1523 1524 1525 1527 1528 1528 1528 1527 1528 1529 1530 1531 1532 1532 1534 1535 1536 1537 1538 1539 1540 1541 1542 1543 1544 1544 1545 1546 1547 1547 1548 1549 1549
1511 1512 1513 1514 1514 1515 1516 1516 1517 1518 1519 1520 1521 1522 1524 1525 1525 1525 1524 1525 1526 1527 1528 1529 1530 1531 1533 1534 1534 1535 1536 1537 1538 1539 1540 1540 1541 1542 1543 1544 1544 1545 1545
1507 1508 1509 1510 1511 1511 1512 1513 1513 1514 1515 1516 1517 1518 1519 1520 1521 1522 1521 1521 1522 1523 1524 1525 1526 1527 1528 1529 1530 1532 1532 1533 1534 1535 1535 1536 1537 1538 1539 1539 1540 1540 1540
1503 1504 1505 1506 1507 1507 1508 1509 1509 1510 1510 1511 1512 1513 1515 1516 1517 1518 1519 1518 1519 1519 1519 1521 1522 1523 1525 1525 1527 1527 1528 1529 1530 1530 1531 1532 1532 1533 1534 1534 1535 1535 1535
1500 1501 1501 1501 1502 1503 1504 1505 1505 1505 1506 1507 1508 1509 1510 1512 1513 1514 1515 1515 1515 1515 1515 1516 1517 1519 1520 1521 1522 1523 1524 1525 1525 1526 1526 1527 1527 1528 1529 1529 1530 1530 1530
1496 1497 1497 1497 1498 1498 1499 1500 1500 1501 1502 1502 1503 1504 1506 1507 1508 1509 1510 1512 1513 1511 1511 1512 1513 1514 1515 1517 1518 1518 1519 1520 1521 1521 1522 1522 1522 1523 1523 1523 1524 1524 1525
1492 1493 1493 1494 1494 1494 1495 1495 1496 1496 1497 1497 1498 1499 1501 1502 1503 1504 1506 1507 1507 1508 1507 1507 1509 1510 1511 1512 1513 1513 1514 1515 1515 1516 1516 1517 1517 1517 1518 1518 1518 1519 1519
1489 1489 1490 1490 1489 1490 1490 1491 1491 1492 1492 1493 1494 1495 1496 1497 1498 1499 1501 1501 1502 1503 1503 1502 1504 1505 1506 1506 1507 1508 1509 1509 1509 1510 1511 1511 1512 1512 1512 1512 1513 1513 1514
1485 1485 1485 1485 1486 1486 1486 1486 1487 1487 1487 1488 1489 1490 1491 1492 1493 1494 1495 1496 1497 1498 1498 1497 1498 1499 1500 1501 1501 1502 1502 1503 1504 1504 1505 1505 1506 1506 1506 1506 1507 1507 1508
1480 1481 1481 1481 1482 1482 1482 1482 1482 1482 1483 1483 1484 1485 1486 1487 1488 1489 1490 1491 1492 1493 1493 1493 1493 1494 1494 1495 1495 1496 1496 1497 1498 1498 1499 1499 1500 1500 1500 1501 1501 1501 1501
1476 1477 1477 1477 1477 1478 1478 1478 1478 1478 1478 1478 1479 1480 1481 1482 1483 1484 1484 1485 1486 1487 1488 1488 1488 1488 1489 1489 1490 1490 1490 1491 1491 1492 1492 1493 1494 1494 1494 1494 1495 1495 1496
1472 1473 1473 1473 1473 1473 1473 1473 1473 1473 1473 1473 1474 1475 1476 1477 1477 1478 1479 1480 1481 1481 1482 1482 1482 1483 1483 1483 1484 1484 1484 1484 1484 1485 1486 1486 1487 1487 1487 1488 1488 1489 1489
1468 1468 1468 1468 1468 1469 1469 1469 1469 1469 1468 1468 1469 1469 1470 1471 1472 1473 1474 1474 1475 1476 1476 1477 1476 1477 1477 1478 1479 1479 1479 1478 1477 1479 1480 1480 1481 1480 1481 1482 1482 1483 1484
1464 1464 1464 1464 1464 1464 1465 1465 1465 1464 1464 1464 1464 1464 1464 1465 1466 1467 1468 1468 1469 1470 1471 1472 1471 1471 1471 1472 1473 1473 1473 1473 1472 1473 1473 1472 1473 1473 1475 1475 1476 1477 1477
1461 1460 1460 1460 1459 1459 1460 1460 1460 1459 1459 1459 1459 1459 1459 1460 1461 1461 1462 1462 1462 1463 1464 1465 1465 1465 1466 1467 1468 1468 1468 1467 1466 1467 1468 1466 1466 1467 1468 1469 1469 1470 1471
1457 1457 1456 1455 1455 1455 1455 1455 1455 1454 1454 1454 1454 1454 1454 1455 1455 1456 1456 1456 1456 1456 1458 1458 1459 1459 1460 1461 1462 1462 1461 1461 1459 1459 1461 1461 1460 1460 1461 1461 1462 1463 1464
1453 1453 1452 1452 1451 1451 1450 1450 1450 1450 1449 1449 1449 1449 1449 1450 1450 1451 1451 1451 1450 1451 1451 1452 1452 1453 1453 1454 1455 1455 1455 1455 1454 1453 1454 1455 1454 1455 1453 1453 1455 1456 1457